Wind_Speed
13 9 12 13 13 3 6 4 6 4 4 2 7 8 15 8 5 4 5 4 4 7 3 14 20 22 23 22 23 24 25 20 9 3 4 6 8 10 9 9 9 10 10 11
8 16 14 7 8 5 3 3 5 6 1 3 7 10 12 7 6 4 8 6 4 5 6 9 18 23 24 25 28 29 28 25 20 13 9 6 9 15 17 16 16 17 17 16
10 7 14 12 6 10 3 5 4 5 7 3 6 8 6 2 1 6 5 4 4 6 7 5 11 19 23 27 28 29 29 28 26 20 14 16 16 20 22 23 22 20 19 19
6 5 15 15 10 7 9 6 3 3 4 3 5 6 6 5 4 5 7 6 6 6 3 5 7 15 21 22 25 27 27 28 26 25 27 27 24 22 17 17 17 18 18 20
6 14 11 15 16 10 4 6 6 3 3 2 1 2 7 1 5 6 7 7 6 6 6 6 8 16 17 20 23 26 28 28 27 27 26 25 23 18 18 19 20 21 21 22
4 5 9 7 4 11 6 5 2 3 2 2 6 7 5 4 6 4 4 6 7 7 6 5 12 17 18 20 22 24 26 26 24 24 24 24 23 22 23 24 26 25 26 26
1 3 3 7 6 3 5 7 2 1 1 6 1 2 8 4 5 8 12 10 8 7 7 6 7 11 17 18 19 21 23 23 22 23 23 22 22 22 23 24 25 27 28 29
7 6 8 5 6 6 7 8 5 6 4 4 3 6 5 2 6 7 9 10 8 7 6 7 7 12 18 18 18 19 20 21 19 20 20 20 20 20 20 20 20 21 21 22
9 5 2 4 5 12 6 9 4 5 2 1 3 7 8 4 6 3 10 11 9 8 7 7 8 14 16 17 16 16 18 18 18 17 17 18 19 19 18 19 20 22 23 23
7 5 1 2 6 3 7 8 2 2 3 4 4 5 5 5 2 3 8 10 8 6 7 7 8 14 16 15 15 16 16 17 16 15 16 16 17 18 20 21 22 23 23 24
6 4 2 6 5 8 2 4 4 4 3 4 1 5 5 5 4 8 7 6 8 8 7 7 8 14 15 14 13 15 15 15 15 14 15 18 20 19 20 21 21 22 22 24
3 6 6 2 1 4 4 7 6 5 4 1 3 6 2 6 5 7 7 6 7 7 7 7 11 15 13 13 13 14 14 14 14 13 14 16 18 20 21 21 22 23 25 26
7 2 5 2 1 2 4 4 4 5 3 6 5 5 3 6 6 6 8 8 8 6 7 6 8 9 11 11 12 12 12 12 11 11 14 16 18 20 21 22 22 23 25 26
7 3 6 9 4 6 5 5 5 6 4 5 6 4 3 3 5 4 4 4 7 7 8 6 6 8 11 10 10 10 10 10 10 13 14 16 18 18 19 20 23 24 25 26
4 4 3 3 4 4 7 9 10 9 7 7 5 8 3 4 4 3 2 2 5 6 7 8 7 6 10 10 8 7 8 8 10 11 13 15 17 18 20 22 24 25 27 28
3 2 3 2 3 2 2 4 8 4 4 2 5 4 3 2 3 2 2 2 4 6 7 7 7 9 10 9 7 4 5 6 8 9 12 16 18 20 21 24 26 28 28 30
5 5 3 3 1 2 4 8 8 5 4 7 7 7 4 3 5 3 3 2 3 5 7 8 7 10 11 9 5 3 3 4 6 10 14 16 18 21 23 25 26 28 30 32
5 4 3 3 2 1 3 1 6 6 2 4 6 5 4 5 3 2 3 3 6 2 6 7 11 13 11 7 4 2 1 4 10 12 13 14 18 21 23 25 26 28 30 30
3 5 3 5 4 4 0 4 7 6 3 2 7 5 4 3 3 3 3 3 4 5 8 14 17 14 10 6 3 1 3 8 9 11 14 16 18 21 23 26 28 28 30 31
5 6 4 2 4 7 1 2 4 4 2 6 6 6 5 3 2 3 4 3 3 7 15 17 14 12 9 5 2 1 5 7 10 13 15 17 18 21 25 24 25 28 30 28
3 3 4 2 2 5 3 3 2 5 3 4 6 5 5 4 4 1 3 2 6 9 13 13 11 9 6 3 1 4 6 8 11 13 16 18 21 23 22 24 25 29 30 27
6 6 4 3 2 6 2 4 6 3 3 6 5 4 4 4 2 4 5 6 7 9 11 9 9 6 4 2 2 3 7 9 12 15 18 20 22 23 24 23 27 29 27 26
1 4 4 6 4 0 1 2 4 4 6 5 4 5 4 3 1 2 3 6 7 9 8 6 6 6 3 1 2 6 9 12 14 17 20 23 25 24 22 23 26 24 23 23
1 2 2 3 2 2 4 4 4 4 5 4 3 3 3 2 3 1 3 5 5 8 8 6 6 5 3 2 4 7 11 14 16 19 22 25 24 25 25 24 24 23 22 22
3 4 4 1 2 2 1 2 5 5 5 5 4 3 3 2 0 1 3 5 8 10 9 7 5 3 3 5 8 10 12 14 17 20 23 24 25 25 27 24 22 23 22 22
4 6 5 5 6 4 4 5 4 6 5 5 3 2 2 1 2 3 3 6 10 10 9 7 4 2 5 9 11 12 14 15 17 21 20 23 21 24 24 24 24 19 21 24
Wind_Direction
197 192 189 186 194 153 156 191 215 255 260 268 280 274 278 279 261 242 182 133 89 73 33 55 57 60 62 62 59 54 51 46 49 29 329 306 319 319 333 351 351 348 338 328
190 204 195 145 157 175 140 182 253 284 210 191 304 284 273 266 265 183 164 158 144 94 54 41 58 62 61 63 61 58 56 54 56 65 58 63 69 70 63 61 59 57 55 48
202 207 183 163 156 178 187 195 251 239 335 312 326 290 311 327 126 109 123 139 129 119 111 82 61 65 66 64 66 66 66 66 67 72 83 91 85 72 63 57 58 53 47 42
225 156 174 173 176 164 221 197 207 281 20 261 38 286 291 269 202 150 140 143 152 134 131 101 86 69 72 74 77 76 73 72 71 73 76 76 72 68 58 52 46 40 32 25
172 171 171 173 196 168 214 150 193 218 209 354 282 293 271 165 214 199 182 168 186 158 139 118 97 91 86 85 82 79 76 72 70 70 70 72 68 61 49 38 30 25 20 16
201 149 155 160 160 178 156 81 60 53 88 290 226 187 274 210 212 153 165 176 184 158 146 117 104 101 94 91 84 81 77 72 69 67 63 60 54 44 36 26 20 13 8 6
173 162 143 141 136 76 100 115 286 279 280 229 72 178 252 232 230 186 179 184 182 169 157 137 114 100 100 94 88 82 78 72 67 64 59 54 49 42 35 25 17 11 4 2
166 201 172 173 178 150 180 174 163 195 202 257 111 238 251 239 285 249 166 156 153 167 169 146 127 118 114 102 91 85 78 72 65 60 56 50 42 37 31 22 15 12 6 1
170 193 160 162 126 143 194 202 191 101 10 48 234 289 307 3 18 115 149 144 166 170 166 146 126 126 117 103 94 88 82 74 64 58 50 42 33 27 23 18 14 9 5 359
190 99 34 135 96 76 174 159 111 5 224 247 285 279 244 338 346 134 155 161 159 162 159 141 132 128 115 108 99 87 78 71 62 52 43 35 29 22 16 12 11 6 2 0
132 109 178 134 188 157 155 165 58 124 138 176 299 273 217 274 262 199 182 159 158 170 170 155 138 131 124 113 96 84 73 64 53 45 35 25 20 16 14 13 10 6 2 2
183 120 141 158 269 178 162 167 154 151 214 135 147 274 353 284 276 148 146 148 173 187 174 151 143 139 127 107 91 78 70 59 47 37 28 25 18 13 9 8 7 6 3 1
176 110 103 90 71 340 188 177 127 115 98 188 153 262 360 48 84 129 144 186 194 172 150 141 135 135 123 106 90 76 63 53 43 32 25 19 14 9 7 3 3 2 358 356
92 141 153 190 184 141 175 176 167 142 152 175 219 276 4 59 128 157 150 173 203 177 161 146 134 126 122 106 92 77 61 43 33 23 18 12 9 6 3 358 359 358 356 352
129 134 122 37 134 137 178 178 179 193 192 185 216 204 205 167 212 246 290 147 172 179 153 149 143 136 130 113 98 75 52 33 24 15 10 8 4 1 358 356 356 354 353 349
78 158 111 65 59 108 186 183 181 186 161 190 137 229 198 117 112 56 11 37 167 172 163 151 143 145 134 126 109 86 54 28 13 10 10 3 357 356 355 354 353 350 346 346
151 134 120 169 103 112 294 214 184 178 179 152 192 207 151 90 115 83 19 332 237 199 166 155 149 146 142 138 136 108 48 13 4 7 4 358 352 352 352 350 346 344 344 342
127 100 78 127 94 195 240 293 173 130 118 146 103 105 121 146 108 17 24 334 319 181 149 141 145 143 147 145 125 105 17 2 4 357 352 353 350 348 345 343 342 341 339 335
48 125 107 144 192 292 203 182 151 156 197 169 128 122 104 96 69 359 30 18 305 174 153 154 158 154 143 131 130 134 3 2 353 345 344 352 347 341 338 340 336 333 333 332
51 70 102 92 146 209 229 134 129 128 242 179 138 137 131 102 84 258 352 23 51 120 141 146 146 139 139 141 144 21 9 349 342 340 343 343 339 337 335 328 325 329 331 322
75 40 129 130 232 287 232 159 169 126 210 139 133 137 135 159 194 145 107 96 133 136 136 138 139 141 142 141 52 21 342 335 337 335 337 336 338 330 325 325 324 329 327 317
158 136 170 117 152 266 166 71 163 165 69 129 128 152 170 196 169 146 166 157 141 137 139 144 137 137 125 79 9 331 318 333 335 332 331 332 329 329 327 325 327 328 321 316
200 166 180 176 215 239 10 138 109 122 133 169 163 179 168 148 120 109 154 166 168 166 155 150 141 143 154 179 331 321 328 334 331 330 329 327 326 325 327 324 323 316 318 314
275 147 126 118 217 118 98 84 119 131 134 131 92 109 132 143 88 53 146 166 162 167 169 162 156 165 179 269 307 322 333 334 330 323 322 323 323 325 324 328 324 315 310 305
191 133 144 109 87 77 268 152 148 118 95 95 76 65 66 69 13 128 172 174 177 176 172 168 161 169 257 303 331 335 333 329 321 318 319 323 325 325 325 320 315 311 306 308
190 179 166 215 187 152 184 164 121 111 92 69 67 51 51 53 206 172 189 184 175 172 165 157 173 249 316 323 325 329 330 322 317 317 320 320 317 323 316 311 311 311 310 315
Height
766 772 772 779 776 782 788 795 798 790 784 786 787 785 768 759 759 760 766 768 769 766 766 764 761 758 756 756 754 749 746 746 746 749 753 756 758 759 761 761 761 760 760 759
767 766 765 774 779 782 786 792 797 790 783 785 783 779 766 760 756 756 765 768 769 767 767 766 763 761 762 759 755 753 751 751 750 752 755 757 759 761 762 762 761 761 760 759
758 759 762 771 781 784 788 795 794 796 789 782 786 779 769 757 755 760 763 766 768 768 770 769 766 766 764 761 759 759 758 757 757 756 757 759 761 763 763 764 764 763 762 761
761 761 761 767 779 781 796 787 786 790 798 806 788 803 778 762 760 762 766 768 770 770 773 768 768 767 767 767 766 765 764 764 763 763 762 763 765 766 768 768 767 765 763 762
758 764 765 767 769 778 783 780 786 788 799 801 795 805 776 764 765 763 767 769 771 772 772 771 769 769 770 771 771 769 768 768 768 767 767 768 769 771 771 769 767 765 764 763
755 752 758 764 767 772 776 786 791 800 804 812 793 794 780 767 761 759 763 767 771 772 774 773 771 771 772 773 773 772 770 772 772 771 772 772 772 772 770 769 767 766 764 762
759 760 755 755 771 773 780 786 808 807 813 807 791 799 773 750 750 750 757 765 770 773 775 774 773 773 773 774 775 775 774 775 776 775 775 775 775 775 774 772 771 767 764 761
761 775 761 753 759 776 783 787 802 804 809 800 797 792 760 746 752 749 748 757 768 773 774 773 773 774 774 775 776 776 776 777 778 778 778 778 778 777 775 774 772 770 767 764
764 760 753 749 753 763 783 783 777 794 799 802 788 771 749 747 750 751 753 759 767 771 771 773 774 775 775 776 778 779 779 780 780 780 780 779 778 777 776 774 772 769 766 763
744 764 753 753 752 762 767 770 786 796 792 795 788 781 767 746 747 755 759 761 767 769 771 774 775 775 776 779 780 780 780 780 781 781 781 781 780 778 776 774 771 769 766 763
736 749 761 757 760 766 770 774 782 782 793 793 797 777 756 751 748 755 760 762 766 767 770 772 774 776 777 780 782 782 782 782 783 783 783 781 780 779 777 774 771 768 765 761
729 750 765 758 754 755 756 765 768 783 789 801 800 780 751 754 750 753 760 762 765 765 767 770 773 776 779 781 782 782 783 783 784 783 783 783 781 779 776 773 770 766 762 758
729 748 768 762 758 757 755 760 765 775 782 794 792 777 750 754 752 754 757 759 760 765 769 772 775 778 781 782 783 783 783 784 784 784 782 781 779 778 775 772 768 764 760 756
718 740 745 753 744 753 760 759 762 762 782 784 781 760 749 754 752 751 753 754 759 763 767 771 776 779 782 783 783 784 785 785 784 783 783 782 779 776 773 771 766 762 759 756
723 735 737 743 741 742 746 749 760 761 757 764 756 765 749 750 749 750 752 755 759 763 767 770 775 779 780 782 784 784 784 784 784 783 783 781 778 775 772 769 765 761 758 754
725 738 733 743 742 740 742 744 755 753 757 752 758 756 748 750 750 751 752 752 756 761 766 770 774 777 779 781 783 784 784 784 783 782 781 778 776 773 771 767 763 759 756 751
728 734 739 746 745 743 748 745 750 749 747 749 758 749 747 751 753 751 751 751 754 758 763 768 773 776 778 781 782 783 783 783 782 779 777 776 775 772 768 765 762 758 752 749
727 734 742 757 749 761 732 733 737 743 745 743 745 746 748 752 753 754 755 756 756 759 764 768 772 775 778 780 781 782 783 781 779 777 776 775 773 770 767 764 760 755 752 748
723 733 750 750 757 743 732 737 739 735 746 743 746 749 750 752 753 755 756 757 759 759 762 766 771 774 777 779 781 782 781 779 779 778 777 773 771 768 766 761 758 755 749 744
730 731 735 772 756 747 727 726 726 726 745 744 744 750 752 755 762 762 758 760 761 761 764 767 772 774 776 778 779 780 779 779 779 777 774 771 770 766 763 761 757 752 747 742
737 744 742 746 748 741 727 726 725 743 743 745 747 750 753 757 758 759 762 763 764 765 767 770 772 774 776 778 777 777 779 778 776 775 772 770 767 765 762 758 754 748 742 738
730 746 751 758 750 743 728 728 733 739 744 745 749 750 753 754 755 760 762 764 765 767 769 771 772 774 775 776 777 778 778 776 774 772 770 767 765 762 758 754 748 743 739 734
727 728 733 736 735 731 731 729 735 737 742 747 748 749 750 752 753 755 759 762 764 767 769 770 772 774 776 776 776 776 775 773 771 769 767 765 762 758 754 749 744 740 736 732
728 730 729 732 734 733 734 736 736 738 741 744 746 748 749 751 753 754 758 761 764 766 768 770 772 774 775 774 775 774 772 770 768 767 765 762 757 752 749 745 742 737 733 729
729 730 733 737 738 737 736 735 736 740 743 745 747 749 750 752 753 755 758 760 762 764 767 769 770 771 772 772 771 770 769 768 767 765 761 756 752 747 743 741 738 734 731 727
730 725 729 728 726 730 733 735 737 740 743 748 749 751 753 753 755 756 758 759 760 763 766 767 768 769 769 769 769 769 768 767 764 760 756 752 748 744 741 736 731 731 726 721